カタログに戻る

STARLINK-3122

運用中通信VLEO
NORAD 49445·PAYLOAD·🇺🇸 United States

打ち上げ Nov 13, 2021 から Cape Canaveral Space Force Station

Loading…

次のパス (今後24時間)

TLE

最新Source: CelesTrak SupGP

元期: Sep 15, 2026, 01:49 UTC

1 49445C 21104AP  26258.07618056 -.00017250  00000+0 -52339-3 0  2589
2 49445  53.1579  77.2018 0001287  79.6183 223.6791 15.33560663    14

AllMySatでSTARLINK-3122をリアルタイム追跡

Download on the App Store